SCOUT X-4 R/B, 721

Orbit data source: Space-Track

SCOUT X-4 R/B, 721 is space debris in LEO originally from a launch on Thu, 19 Dec 1963 UTC launched from the Air Force Western Test Range (AFWTR). Debris objects in space refer to the collection of defunct objects orbiting the Earth. Examples of debris include non-operational satellites, rocket bodies, and fragments generated from explosions, collisions, or faulty payload assembly.

Loading next visibility...
Identifier
721, 1963-053B
Orbit
LEO
Country
Flag of USUS
Related business
Manufacturer
ABL
Mission
Spacecraft
Bus & Motor
ALTAIR, Unknown motor
Mass
68 kg wet, 33 kg dry
Launch date (UTC)
1963-12-19 (62 years ago)
Launch vehicle
Unknown
Launch site
Air Force Western Test Range (AFWTR)
Object type
Payload
Rocket body
Debris
Shape & HBR
Cyl, 0.8 m
Radar Cross Section
0.687 m², Medium (>0.1 m² and < 1m²)

Expand to show TLE details & history
Last TLE update: 10 hours ago

TLE from 10 hours ago
0 SCOUT X-4 R/B
1 00721U 63053B   25242.84422232  .00000301  00000-0  18193-3 0  9998
2 00721  78.6037  37.2752 1087690 270.1483  77.5230 12.54902867813634
Epoch: 2025-08-30T20:15Z
TLE epoch observation values (Epoch: 2025-08-30T20:15:40.808Z)
Latitude
-0.00003°
Longitude
114.08247°
Altitude
1,353.565 km
Speed
7.224 km/s
True Right ascension
02h 29m 06s
True Declination
0° 00' 00"
Sunlit
Object was in daylight at epoch
Visualization orbit readout
Latitude
Unknown
Longitude
Unknown
Altitude
Unknown
Speed
Unknown
Apparent Right ascension
Unknown
Apparent Declination
Unknown
Sunlit
N/A
Visualization observer readout
Local Sidereal Time
21:35:14
Azimuth
Unknown
Elevation
Unknown
Doppler factor
Unknown
Orbital elements
Apogee altitude
2,292.067 km
Perigee altitude
590.992 km
Semi-major axis
7,819.667 km
Eccentricity
0.10877
Inclination
78.6037°
RAAN
37.2752°
Arg. of periapsis
270.1483°
True anomaly
89.96171°
Mean anomaly
77.523°
Eccentric anomaly
83.71758°
Mean motion
3.13878 °/min
Orbital period
114.69 mins
BSTAR
0.00018193
Loading maneuver chart data...
Computing Atmospheric mass density...
Loading historical data...
Loading historical data...
Loading historical data...
Loading historical data...
Loading historical data...
Loading historical data...
Loading historical data...

Documentation

Showing up to 5 results
|